{"data":{"norad_id":68807,"intl_designator":"2026-089F","name":"STARLINK-37366","alt_names":[],"object_type":"PAYLOAD","status":"ACTIVE","operator":null,"country":"US","launch_date":"2026-04-23","launch_site_code":"AFWTR","launch_vehicle":null,"mission":null,"orbit_class":"UNKNOWN","rcs_meters":null,"size_class":null,"mass_kg":null,"dimensions":null,"purposes":["comms"],"wikipedia_slug":null,"has_3d_model":false,"image_url":null,"decayed_at":null,"tle_current":{"epoch":"2026-09-20T00:42:11.911392Z","epoch_age_seconds":80756,"freshness":"FRESH","line1":"1 68807U 26089F   26263.02930453  .00006129  00000+0  19199-3 0  9998","line2":"2 68807  97.2894 108.7481 0001017  63.6646 296.4701 15.33451046 23184","mean_motion":15.33451046,"eccentricity":0.0001017,"inclination_deg":97.2894,"raan_deg":108.7481,"arg_perigee_deg":63.6646,"mean_anomaly_deg":296.4701,"bstar":0.00019199,"rev_number":2318,"period_min":93.905834409011,"perigee_km":464.82918545065,"apogee_km":466.22118633926,"semimajor_km":6843.662185895,"source":"CELESTRAK","updated_at":"2026-09-20T09:00:44.006595Z"}}}